Volver al catálogo

LEMUR-2 WOBLER

ActivoMeteoSSO
NORAD 67368·PAYLOAD·🇺🇸 United States

Lanzado Jan 11, 2026 desde Vandenberg Space Force Base

Loading…

Próximos Pases (próximas 24 horas)

TLE

ActualizadoSource: Space-Track

Época: Sep 14, 2026, 10:21 UTC

1 67368U 26004F   26257.43132564  .00002727  00000-0  29515-3 0  9995
2 67368  97.8102 254.8344 0007541 186.2456 173.8668 14.89062219 36570

Sigue LEMUR-2 WOBLER en tiempo real con AllMySat

Download on the App Store